Theta_e
284 286 286 283 280 280 282 283 283 277 277 277 276 277 280 281 277 276 282 284 281 282 284 282 281 278 277 275 275 275 275 274 274 273 274 274 273 273 272 272 272 272 271 271 270 270 270 270 269 268 268 268 268 268 268 268 268 268 268 267 267 266 266 266 266 267 267 268 268 268 269 269 269 268 268 267 267 266 266 266 267 267 267 267 267 267 268
284 283 283 283 281 281 281 282 282 281 278 277 278 279 281 280 280 281 282 282 281 284 285 283 282 281 279 277 276 275 274 273 274 273 273 273 273 273 273 272 272 271 271 270 270 270 269 268 267 267 267 267 267 267 267 267 267 267 267 266 266 265 265 265 266 266 267 267 267 268 268 267 267 266 266 266 265 265 265 265 266 266 266 267 267 267 267
281 283 282 281 281 281 280 282 282 282 282 282 281 280 281 281 280 280 280 279 279 284 284 284 281 279 276 275 274 274 274 274 274 273 273 273 273 273 273 272 271 271 270 270 269 269 268 267 267 266 267 267 267 267 267 267 266 267 266 265 265 265 265 265 266 266 266 266 267 266 266 266 266 265 265 264 264 264 264 265 265 266 266 266 267 267 267
280 282 280 279 279 278 278 278 279 280 281 279 281 279 282 280 278 279 278 276 277 282 281 282 278 276 275 274 274 274 274 274 274 273 273 273 273 273 272 271 270 270 270 269 269 268 267 267 266 266 266 266 266 266 266 266 266 266 265 265 264 264 265 265 265 265 265 266 265 265 264 264 264 263 263 263 263 263 264 264 265 266 266 266 266 267 267
278 278 277 276 276 276 276 277 280 280 280 282 283 283 283 282 282 278 275 277 282 283 277 277 275 276 275 275 275 274 274 274 274 274 273 273 273 273 271 270 270 270 269 269 268 267 266 266 266 266 266 265 265 265 265 265 265 264 264 264 264 264 264 264 265 265 265 265 264 263 263 263 263 262 262 262 262 262 263 264 265 265 266 266 266 267 267
275 272 274 275 274 272 275 283 285 283 280 280 279 280 281 282 282 280 282 283 284 281 277 278 276 275 275 276 276 277 276 274 274 274 274 274 273 272 271 270 269 269 269 268 268 267 266 266 266 266 266 265 265 265 265 265 264 264 263 263 264 263 264 264 264 264 264 263 262 261 261 261 261 261 261 261 261 262 263 264 265 265 266 266 266 266 267
272 273 274 272 270 274 281 276 279 281 283 282 281 281 282 282 282 282 281 282 282 283 282 278 278 277 277 277 276 276 276 276 275 274 274 273 272 271 270 269 270 269 268 267 267 266 266 266 266 265 264 265 265 264 264 263 263 263 263 263 263 263 264 264 263 263 262 261 261 260 260 260 260 260 260 261 261 262 263 264 264 265 265 265 266 266 267
273 269 272 268 272 281 282 277 277 281 279 279 278 277 280 281 281 282 280 282 283 283 283 278 278 277 275 275 275 276 276 276 275 274 274 273 272 271 271 270 269 268 267 267 266 266 266 265 264 264 264 264 263 263 263 263 262 263 263 262 263 263 263 263 262 262 261 260 260 259 259 259 259 259 260 260 260 262 263 264 265 266 266 267 266 266 267
274 274 273 275 281 279 282 283 277 277 277 276 277 275 280 283 281 281 281 281 282 282 279 276 275 275 275 274 274 275 275 275 276 275 274 273 272 271 271 270 268 268 267 266 266 265 264 264 264 263 264 263 262 262 262 262 262 262 262 262 262 262 261 261 261 261 260 259 258 258 258 258 258 259 260 260 261 263 263 264 265 266 266 266 267 267 267
281 275 273 273 274 272 278 280 279 279 281 280 279 277 276 281 280 281 281 280 281 279 274 275 274 275 273 270 274 275 274 275 274 273 273 272 271 270 269 268 268 267 267 266 266 265 263 263 264 264 263 262 261 261 261 261 261 261 261 261 261 261 260 260 260 260 259 258 258 258 258 258 258 259 260 262 262 264 264 265 265 266 267 267 268 268 268
276 274 272 273 272 276 283 276 277 278 278 279 276 273 273 280 280 280 281 280 280 277 274 274 275 274 270 272 275 276 274 274 273 272 271 271 270 269 268 267 266 266 265 265 264 264 263 262 263 263 262 261 261 260 260 261 261 260 260 260 260 260 259 259 259 258 258 257 257 257 257 258 259 259 261 262 263 265 265 265 266 267 267 267 268 269 269
277 276 274 272 277 277 277 277 277 277 278 280 277 271 274 278 277 278 279 279 278 276 276 275 275 274 271 274 276 275 274 274 272 272 270 269 268 267 267 266 266 265 265 264 263 263 262 262 263 262 261 261 260 260 260 260 259 259 259 259 259 259 259 258 258 257 257 257 257 257 257 258 259 261 263 263 263 263 264 265 265 266 267 268 268 269 270
277 278 275 277 277 283 278 276 277 278 279 279 269 270 282 278 277 276 278 279 278 277 275 276 274 277 277 276 276 275 274 272 271 271 270 269 268 267 267 267 267 264 264 263 263 262 263 263 262 261 261 260 259 259 259 259 258 259 259 259 259 258 257 257 256 256 257 257 257 258 259 259 261 262 262 262 262 263 263 264 264 265 265 266 268 269 271
275 276 274 275 278 283 279 279 278 280 279 269 273 282 280 278 277 277 279 278 278 277 277 276 278 275 273 275 275 274 273 272 270 269 268 268 267 267 267 267 264 263 263 262 262 262 262 262 261 261 260 258 258 258 258 257 258 259 258 258 257 256 256 256 256 256 256 257 258 258 259 261 261 260 261 261 262 262 262 263 263 264 265 267 268 269 272
275 275 272 271 269 280 282 279 277 281 278 280 282 277 277 279 279 278 278 278 277 278 277 278 275 273 273 274 274 273 272 270 269 267 267 266 266 265 264 263 264 263 262 261 261 261 262 261 261 261 259 257 257 257 256 257 258 258 257 257 256 255 255 255 255 256 256 257 258 259 260 261 260 259 260 261 261 262 262 262 262 263 264 265 266 267 269
271 273 270 271 280 281 282 280 276 279 284 285 279 281 278 278 278 278 278 277 278 278 278 276 274 274 273 273 273 272 271 270 269 269 268 267 266 264 264 263 262 262 261 261 260 260 260 260 260 259 258 256 256 256 256 257 258 257 256 255 255 254 254 254 255 256 257 257 258 259 260 260 259 259 259 260 261 261 261 261 262 262 263 264 265 265 267
276 275 279 284 280 281 282 284 286 283 285 280 280 282 280 278 278 278 279 278 277 278 278 277 275 273 274 273 273 272 271 270 268 267 266 266 265 263 262 262 262 261 260 259 259 258 259 259 259 258 258 256 255 254 256 257 256 255 255 254 253 253 253 254 255 256 256 257 258 259 259 259 259 259 259 260 259 260 260 261 261 261 261 263 264 265 266
285 286 287 281 279 280 281 283 281 281 282 279 281 281 279 279 279 278 278 279 278 278 278 276 275 275 275 273 272 272 270 269 268 266 265 264 263 262 261 261 261 259 258 257 256 256 258 258 258 258 257 256 254 255 256 256 255 254 253 252 252 253 253 254 255 256 256 257 258 259 259 259 259 259 259 259 259 259 260 260 260 260 261 262 264 265 265
281 278 287 285 283 280 281 282 282 280 282 280 280 280 280 280 279 279 280 279 278 278 278 277 276 276 275 273 273 271 269 268 266 265 264 263 262 260 260 261 259 258 256 256 255 255 255 257 257 257 255 256 256 256 255 255 254 253 252 252 252 253 253 254 255 255 256 257 258 258 258 259 259 259 259 259 259 259 259 259 259 260 261 263 263 264 264
282 284 286 284 286 283 282 282 281 281 279 280 280 280 281 281 280 280 280 279 278 278 277 278 277 276 275 274 272 270 269 267 266 264 263 261 261 260 260 259 258 256 256 255 255 255 255 257 257 256 255 255 255 254 254 254 253 252 251 252 252 252 252 254 254 255 256 259 258 257 257 258 258 259 259 259 259 259 259 259 259 260 262 263 263 263 264
284 287 284 279 282 282 281 281 282 283 282 281 280 280 280 280 280 279 278 280 278 278 278 278 277 275 274 274 272 270 268 266 265 264 262 261 260 260 259 258 257 256 255 255 255 255 256 257 256 254 253 254 254 254 254 253 252 251 251 252 252 252 253 253 254 255 256 256 256 257 257 258 259 259 258 259 260 260 261 262 263 263 263 263 264 265 266
280 281 284 283 278 280 282 281 282 283 282 281 280 280 279 279 279 278 277 277 278 279 279 278 277 275 274 272 271 269 267 266 263 262 261 259 259 259 258 257 256 255 255 254 254 254 255 256 254 253 253 253 253 254 253 252 252 250 250 251 251 251 252 253 253 254 255 255 256 256 257 257 258 258 262 265 263 261 261 266 268 269 269 265 266 267 267
281 286 288 287 287 287 288 285 284 283 283 281 279 279 279 279 279 278 278 276 275 276 276 278 277 275 273 271 270 267 266 264 263 261 259 258 258 258 257 255 254 254 255 254 254 253 254 254 253 252 252 252 252 252 253 252 252 250 250 250 250 251 252 252 254 255 255 255 256 256 257 257 258 257 257 259 264 266 266 267 267 268 269 270 270 271 269
289 289 286 288 286 285 287 283 283 283 283 282 281 281 281 280 279 279 278 277 276 275 274 273 274 274 272 270 269 266 263 262 260 259 259 259 258 257 256 255 254 254 254 254 253 253 254 253 252 251 251 251 251 251 251 251 251 250 249 249 249 250 251 252 254 255 255 255 255 256 256 257 257 257 256 256 257 262 266 266 267 267 268 269 270 270 271
288 284 281 286 287 287 283 281 283 283 283 283 282 281 280 280 279 279 278 278 278 276 273 272 270 271 269 268 267 264 262 261 260 259 259 258 258 256 255 254 254 253 254 254 254 254 252 251 251 251 250 250 251 251 251 251 250 249 249 249 249 250 251 253 254 254 254 254 255 255 255 256 256 256 255 255 254 255 258 264 266 266 266 268 269 270 271
287 281 281 282 282 281 281 282 281 282 282 282 282 282 281 280 279 278 278 278 277 275 274 271 268 268 268 266 264 262 260 259 260 260 258 257 256 255 254 253 254 254 254 253 253 252 251 250 250 249 249 250 251 251 251 250 249 248 248 249 249 250 251 253 253 253 253 253 254 254 256 256 256 255 255 255 255 255 254 255 256 260 264 266 268 268 269
283 282 282 281 280 280 281 282 281 281 281 282 282 281 279 279 278 277 274 274 274 273 272 270 268 266 265 264 262 261 259 259 259 258 257 256 255 254 254 254 254 253 252 252 251 252 252 251 250 250 248 250 251 250 249 249 248 248 248 249 250 252 254 254 252 252 252 253 253 254 255 255 255 255 255 255 255 255 254 254 254 254 255 257 262 267 265
283 283 287 284 281 280 280 283 283 282 282 281 281 279 277 274 272 270 270 269 268 267 267 266 264 263 261 261 260 259 259 258 256 256 256 255 255 254 254 253 253 252 252 251 250 250 250 249 249 246 248 250 250 249 249 248 247 247 248 249 249 250 251 252 252 252 252 252 253 254 255 254 255 255 255 255 255 255 255 255 255 254 255 256 257 262 267
282 283 287 288 286 283 282 280 279 280 279 279 278 275 273 272 272 271 270 269 267 265 264 263 263 263 262 260 260 259 258 257 256 255 255 255 254 254 253 252 252 252 251 250 249 249 248 248 249 248 249 249 249 249 248 247 247 247 248 249 248 249 250 252 252 252 251 251 252 254 256 255 255 254 254 255 255 254 254 254 255 255 255 255 256 256 261
282 283 282 281 280 279 278 278 279 278 276 274 273 273 274 273 271 271 268 266 266 266 264 263 262 261 260 260 259 259 257 256 256 255 254 254 253 252 252 252 251 250 249 248 248 248 247 247 247 247 248 249 250 249 248 246 247 246 246 248 248 249 250 253 252 252 251 251 252 255 254 254 254 254 254 254 254 254 254 253 254 254 253 254 256 254 255
280 281 281 279 278 279 279 278 277 276 274 273 273 272 273 273 272 269 266 265 266 264 262 262 262 260 259 259 258 257 257 256 255 254 254 253 252 252 252 251 251 250 250 250 248 247 247 246 246 247 248 248 249 249 247 246 246 246 246 248 248 252 254 256 255 252 250 251 251 252 252 253 253 253 253 253 253 253 253 253 253 253 253 253 253 254 255
279 277 276 277 277 278 278 277 275 272 271 272 272 272 271 272 271 269 265 265 265 263 262 261 260 259 259 257 256 256 255 254 253 253 252 252 251 251 251 250 250 252 250 248 248 248 247 246 245 246 247 248 248 248 248 247 246 245 245 248 248 248 251 255 252 252 251 251 251 251 252 252 252 253 253 252 252 252 252 252 252 253 252 252 253 253 256
277 274 273 274 276 277 277 275 274 271 271 271 272 273 273 274 272 269 266 266 264 262 262 261 260 258 257 256 255 254 254 253 253 252 251 250 250 250 250 250 249 249 249 248 247 247 246 245 246 247 247 248 248 248 248 247 247 244 244 244 244 247 250 252 252 250 249 250 249 250 251 251 252 252 252 252 252 252 252 252 252 252 252 252 252 253 256
279 279 279 278 279 278 277 275 275 272 271 272 273 273 272 272 271 268 267 265 264 262 261 260 258 257 256 255 254 254 253 252 251 251 250 250 250 250 250 250 246 246 248 247 248 247 246 246 246 246 248 249 248 248 248 247 246 244 244 244 245 246 247 247 248 248 248 249 249 250 250 251 251 251 251 251 251 251 251 252 252 252 251 252 252 253 256
283 283 282 281 282 282 281 278 275 273 271 271 270 270 271 270 269 267 265 264 263 262 261 259 257 256 256 255 254 253 253 255 254 252 251 250 250 250 249 246 245 246 247 246 247 246 246 246 245 246 247 247 247 247 247 246 246 244 243 244 246 246 246 247 247 247 247 247 248 248 249 249 250 252 252 251 251 251 251 251 251 251 251 251 251 252 253
283 283 282 281 281 281 279 277 276 274 273 272 271 270 269 268 267 265 264 264 263 261 259 257 256 256 255 254 254 253 254 255 253 252 251 250 250 250 248 247 247 248 247 246 247 245 246 245 249 250 248 247 247 246 247 247 244 242 244 243 244 245 246 246 246 245 247 246 247 248 248 250 251 250 251 250 250 250 250 250 250 251 251 251 251 251 252
283 282 281 280 280 279 277 276 275 274 273 273 272 270 268 267 266 265 264 262 261 260 258 257 256 255 255 255 255 255 255 254 253 252 251 250 250 249 248 248 249 248 247 244 246 247 246 246 249 249 247 246 246 245 247 250 245 242 242 241 242 243 244 244 245 245 245 246 247 247 249 249 248 249 250 249 249 250 250 250 250 250 250 250 251 251 251
282 282 280 279 278 278 277 277 276 275 274 273 271 270 268 267 265 264 263 261 260 259 258 257 257 257 256 255 254 254 253 253 252 251 250 250 249 248 248 248 247 246 246 245 244 245 245 247 248 246 245 245 245 245 247 250 249 242 241 242 243 243 244 243 244 245 245 244 247 246 246 246 247 247 248 248 249 249 249 250 250 250 250 250 250 250 250
280 280 280 279 278 278 277 275 275 274 273 271 269 267 266 266 264 263 261 260 259 258 257 257 256 255 254 254 254 253 252 252 251 250 250 249 249 248 247 248 248 247 243 241 241 240 246 248 247 245 245 244 245 246 247 249 248 242 241 241 241 242 243 243 243 244 244 245 244 245 245 246 246 247 247 247 248 249 249 249 249 250 249 249 249 249 250
279 279 278 277 276 276 274 273 273 272 272 271 268 265 264 263 262 261 260 257 257 257 257 256 255 254 254 254 253 252 251 251 251 250 249 249 248 246 246 247 246 246 246 249 247 246 248 249 246 244 244 244 245 245 246 247 247 245 243 241 242 242 242 243 242 242 242 242 243 246 244 245 246 246 247 247 247 248 248 248 248 248 248 248 249 249 249
279 278 277 276 275 274 273 271 271 270 269 268 267 265 264 263 261 259 256 256 257 257 256 256 256 255 255 254 253 252 251 250 250 250 249 248 247 247 248 247 248 247 247 247 246 247 248 247 246 245 245 246 246 247 245 247 244 244 244 242 242 242 242 242 242 242 242 242 243 242 242 244 244 244 245 246 246 246 247 247 248 248 247 247 248 248 248
277 277 276 274 273 272 271 270 267 266 265 265 264 263 263 262 261 259 257 257 256 256 256 256 257 255 255 254 252 250 250 250 249 249 249 250 250 249 249 247 246 247 249 249 249 248 246 246 246 246 246 246 246 247 247 246 243 242 243 243 242 243 242 242 242 241 242 241 240 240 242 243 243 243 244 245 245 246 246 247 247 247 247 247 247 248 248
274 274 274 272 271 269 267 266 266 264 261 261 262 261 261 260 259 257 256 256 255 255 255 255 255 255 253 251 250 249 249 249 249 249 249 248 247 250 250 250 247 248 251 247 246 245 245 245 245 246 247 246 246 247 247 245 243 242 242 242 244 244 244 242 241 241 241 239 240 240 240 242 242 242 243 243 244 245 245 246 246 246 246 246 246 247 247
273 273 272 269 267 265 265 264 261 260 260 259 260 260 259 258 257 256 255 255 255 255 255 254 254 253 252 251 251 250 249 249 248 249 249 248 248 249 248 248 247 249 250 247 246 245 245 245 246 247 247 247 247 246 245 244 244 243 243 242 242 243 243 241 241 241 240 241 240 240 240 242 242 242 242 242 243 244 245 245 246 246 245 245 245 246 247
270 269 268 265 263 263 262 261 261 260 257 257 257 257 256 256 256 256 255 255 255 255 254 254 253 252 252 252 252 251 250 251 250 250 250 248 248 249 247 249 248 248 248 248 246 246 245 246 247 247 247 246 246 246 244 244 244 244 243 242 242 242 242 242 242 240 241 240 240 241 241 241 240 241 241 242 244 244 244 244 245 245 244 244 245 245 245
262 261 261 262 262 261 260 259 257 256 256 255 254 254 254 254 254 255 255 255 254 254 254 254 253 253 253 253 252 251 251 251 251 251 250 250 252 251 249 249 247 248 249 248 245 245 245 248 248 247 247 246 246 244 243 244 243 242 242 241 241 242 242 242 240 239 239 240 240 240 239 239 239 239 240 241 242 243 243 244 244 244 244 244 244 245 245
259 259 259 257 255 254 255 255 256 255 254 254 253 252 253 253 254 254 254 254 254 253 253 253 254 254 254 252 251 250 249 249 249 250 247 247 248 249 250 250 250 250 248 246 245 245 245 246 247 247 246 246 245 241 241 241 241 241 241 241 241 242 242 239 239 238 237 238 241 241 242 241 239 238 240 241 241 242 242 242 242 243 243 244 244 245 244
255 254 254 253 253 254 254 255 255 256 256 253 252 252 252 253 253 252 252 252 252 252 252 252 252 252 252 252 253 253 252 252 250 249 247 247 248 248 248 248 248 249 248 248 247 248 248 248 247 247 246 245 243 240 241 241 241 241 240 240 241 241 240 239 238 237 238 239 239 238 238 238 238 238 239 239 240 241 241 242 242 242 242 243 243 243 243
254 253 253 254 254 255 255 256 256 255 253 253 252 252 252 252 252 252 251 252 252 251 251 251 251 251 251 252 252 253 252 251 253 251 249 248 248 247 247 249 250 249 246 245 244 244 247 248 247 246 246 244 241 240 241 241 241 242 241 240 239 239 239 238 237 237 237 237 238 238 238 238 238 237 238 239 240 240 241 241 241 241 242 243 243 243 243
253 253 253 254 254 255 256 255 254 253 252 252 251 252 252 252 251 251 251 251 251 251 251 250 250 251 251 252 251 249 249 249 249 249 248 247 247 247 247 246 246 248 246 243 242 243 246 247 247 246 244 240 239 240 239 240 241 242 241 241 242 240 240 241 243 243 240 240 238 238 238 239 238 239 240 239 239 240 240 241 241 243 245 243 242 242 242
253 253 254 254 254 254 255 254 253 253 252 252 252 253 253 253 251 251 251 251 251 250 250 250 251 251 251 251 250 250 250 249 249 249 247 247 247 247 247 246 246 246 245 244 243 242 242 242 241 243 242 242 241 240 241 241 240 240 243 242 242 240 240 241 240 238 238 238 238 238 238 237 237 237 236 238 239 239 240 240 241 240 240 240 240 241 241
254 254 254 254 253 253 253 253 253 253 253 253 253 253 253 252 251 251 251 253 252 251 250 249 248 250 250 250 250 250 250 249 249 248 248 247 246 246 246 247 245 245 244 243 242 240 243 241 244 245 244 242 241 240 242 243 242 241 241 242 242 242 241 241 240 239 238 239 239 238 239 238 237 238 238 237 238 239 239 239 239 239 240 240 240 240 240
Wind_Speed
18 18 15 4 4 7 13 17 13 9 13 13 21 23 23 17 13 24 29 20 20 26 17 7 14 15 16 16 17 17 14 11 8 8 9 9 8 7 7 7 6 6 7 8 7 4 4 4 6 7 7 7 8 8 8 9 10 10 10 11 13 14 14 14 15 14 16 16 16 17 17 17 15 19 15 15 18 17 16 16 16 17 18 18 19 19 19
15 14 12 8 9 9 13 21 15 6 14 21 21 20 24 22 23 28 26 26 31 30 16 7 10 12 12 12 9 7 10 13 12 12 11 10 9 8 9 8 8 8 9 7 5 3 4 4 5 8 9 9 8 10 11 10 10 10 10 12 12 14 14 14 14 14 15 16 16 17 18 17 19 16 16 19 16 16 17 16 17 17 17 17 17 17 18
14 14 6 6 8 9 19 25 14 12 19 15 18 21 25 22 21 27 27 28 31 28 11 11 5 7 5 8 13 15 13 13 14 13 12 10 10 10 9 9 10 8 6 5 3 2 2 4 6 6 7 8 9 10 10 11 11 11 10 12 13 12 14 14 14 15 14 14 16 19 16 17 16 17 17 15 16 17 16 16 16 16 15 16 16 16 16
13 5 2 1 2 6 15 24 21 19 18 18 21 18 24 18 24 25 21 18 23 25 8 8 7 9 13 15 14 13 12 14 14 14 12 11 12 11 11 10 7 5 5 5 1 2 5 5 5 6 8 9 10 10 11 12 12 11 12 12 13 14 13 14 14 15 14 16 17 15 16 16 15 15 16 16 16 16 17 17 15 14 15 16 16 15 14
14 0 5 4 1 7 17 25 26 22 24 25 20 19 21 22 19 14 16 23 23 15 5 6 6 11 11 12 14 13 11 13 15 15 14 13 11 11 9 7 6 6 4 2 1 2 2 4 6 6 7 9 10 10 12 12 11 12 12 12 13 14 14 14 14 14 16 17 16 16 15 15 16 16 15 15 16 16 17 16 15 16 16 15 15 15 15
2 4 3 4 1 10 24 2 5 16 20 21 22 25 27 23 15 18 20 22 18 6 7 9 9 10 11 14 15 18 19 16 15 11 11 11 10 8 7 7 7 4 3 2 1 1 2 3 5 6 6 8 9 9 10 11 11 12 13 14 13 14 14 14 14 15 15 16 16 16 15 15 16 16 15 16 16 15 16 16 16 16 15 15 16 15 14
4 3 5 1 8 24 2 1 2 7 13 14 21 25 25 18 16 21 22 24 22 22 13 9 8 11 9 10 12 10 11 15 14 15 12 11 10 9 8 7 6 5 4 2 1 2 2 4 5 6 7 7 9 10 10 12 11 12 12 13 14 14 15 15 15 16 17 15 15 15 16 16 16 16 16 17 17 15 15 15 15 14 14 15 14 14 14
3 3 5 3 20 10 8 5 5 2 2 4 2 16 23 21 20 18 19 25 25 20 16 5 7 9 6 4 4 10 10 11 13 12 12 11 10 10 8 8 6 5 4 3 2 2 2 4 5 6 7 8 10 11 10 11 11 11 12 12 13 13 15 15 16 15 15 18 17 18 18 16 15 16 16 16 17 17 16 15 14 13 14 13 14 16 15
10 8 11 20 12 22 30 19 6 8 9 9 11 14 22 16 10 18 18 23 22 16 6 7 5 8 7 5 4 3 9 8 9 13 11 11 10 7 6 7 6 4 5 5 3 2 2 4 5 5 6 8 9 11 11 10 10 11 11 12 13 14 15 16 16 16 16 17 17 17 16 16 16 16 17 18 16 14 15 15 14 13 13 12 13 12 15
12 10 9 4 7 13 24 4 2 5 5 5 5 2 17 8 9 12 17 19 19 8 6 7 10 9 7 3 9 8 7 7 9 4 6 5 6 6 7 6 6 5 6 5 2 0 2 3 3 5 6 8 9 10 11 11 11 12 12 13 13 14 15 14 14 16 16 16 17 17 16 17 18 16 15 13 14 15 15 15 16 17 15 14 13 12 14
6 6 9 10 11 18 12 6 4 3 6 9 6 3 17 7 15 13 15 16 11 9 12 10 11 9 8 12 9 11 11 9 9 11 8 8 8 6 5 7 6 6 5 3 2 0 1 3 6 6 7 8 9 10 11 12 11 12 12 14 14 15 17 16 16 16 15 15 16 17 17 17 16 17 16 14 13 13 14 15 16 16 14 15 14 11 12
10 11 8 11 9 16 3 8 3 6 10 7 3 6 18 3 11 8 11 12 9 11 12 15 12 12 10 15 9 13 14 14 11 12 12 9 8 7 6 5 6 6 5 3 1 3 4 5 5 6 6 8 9 10 11 11 12 12 13 14 14 15 15 15 15 14 14 16 16 15 18 18 16 15 14 15 16 17 16 14 15 14 15 13 16 14 12
16 14 9 7 10 14 9 10 8 8 5 7 3 11 20 10 10 8 10 13 11 13 14 14 12 14 6 3 10 16 13 11 8 6 8 7 8 8 7 7 7 5 4 4 3 3 3 4 5 6 6 8 9 9 11 11 12 13 14 14 15 15 15 15 15 15 14 14 17 16 15 15 14 14 14 15 17 16 16 15 15 16 17 16 16 14 12
13 12 12 14 13 12 10 10 18 12 8 3 18 13 6 13 10 9 11 11 11 14 17 15 11 5 6 8 13 16 16 14 12 11 10 8 7 5 8 8 7 5 4 3 3 3 3 6 5 5 6 8 9 10 10 11 13 13 14 14 14 15 15 15 15 15 15 15 14 13 14 13 15 15 14 15 15 15 14 15 17 18 16 15 14 14 12
3 2 9 2 11 9 26 16 7 10 9 17 6 5 1 4 11 10 7 9 10 13 12 10 8 10 9 13 16 16 14 14 14 12 11 10 9 8 6 6 5 5 4 3 3 3 5 5 6 6 5 8 9 9 11 12 12 13 13 14 14 14 15 14 14 15 14 15 15 12 12 13 15 16 15 14 15 14 14 15 15 16 16 15 15 15 14
9 12 13 14 17 7 24 24 17 17 26 10 8 9 7 4 5 8 7 6 10 12 12 11 9 10 11 8 13 12 11 11 11 10 8 7 8 8 7 7 6 4 5 3 3 3 5 4 4 5 5 7 9 11 12 11 12 12 12 13 13 14 14 13 14 14 14 14 13 12 13 13 13 15 15 14 14 13 13 14 13 14 14 15 15 15 15
12 13 17 20 5 15 22 22 17 20 24 5 9 8 10 10 7 4 8 9 8 11 12 12 14 10 11 16 16 18 15 14 12 10 10 9 8 8 7 6 6 4 5 3 4 3 4 4 4 3 4 6 9 10 11 11 11 13 13 13 13 13 13 13 14 13 13 13 13 11 12 12 13 13 14 14 14 12 12 12 12 13 14 14 15 15 15
16 14 14 5 2 10 18 17 2 1 6 4 6 9 8 7 9 9 9 9 11 9 10 13 8 13 13 13 12 10 13 13 10 9 9 8 7 7 7 6 5 4 5 4 4 4 5 3 3 3 4 5 7 10 10 10 11 12 13 14 13 14 13 12 13 13 15 13 11 11 12 11 12 11 13 13 12 12 11 11 12 13 14 14 14 15 15
8 14 23 19 18 8 16 19 10 2 5 9 8 7 9 7 9 9 6 10 11 13 12 15 15 11 14 15 13 12 12 12 11 10 10 9 8 9 8 6 5 4 4 5 4 3 3 3 2 4 3 5 5 8 9 10 11 11 12 12 12 12 13 13 12 12 13 12 13 12 11 11 11 11 11 12 12 12 11 12 12 12 13 14 15 15 14
14 24 12 5 11 14 17 15 14 15 8 10 7 6 7 10 10 12 10 6 9 11 12 13 13 13 13 15 13 12 12 13 12 11 9 10 9 7 8 7 6 5 5 4 2 1 2 3 3 3 4 5 5 7 8 8 9 10 11 11 11 12 13 12 11 12 12 16 15 11 11 11 11 12 12 12 12 12 12 12 11 10 12 13 14 15 14
17 24 12 5 4 6 10 13 14 15 13 12 9 7 8 9 11 7 4 8 11 12 14 11 12 13 12 14 16 14 11 12 12 12 11 10 10 10 9 6 6 5 4 3 0 1 2 2 3 3 4 4 5 8 8 7 8 9 10 11 11 11 11 10 11 11 11 11 11 12 12 11 10 11 12 13 13 11 12 11 11 13 11 11 12 10 10
17 22 23 12 8 10 13 18 23 18 13 12 12 9 9 11 12 11 11 5 4 10 11 13 13 15 12 9 13 14 13 14 15 12 11 10 10 9 8 7 6 4 4 3 1 1 2 2 3 3 4 4 5 6 6 7 8 8 10 10 9 9 10 10 10 11 10 11 11 11 11 11 12 12 16 21 16 13 11 21 27 25 23 15 15 13 10
22 23 20 15 17 18 13 14 17 14 12 14 16 17 16 13 13 14 13 11 7 6 5 6 13 13 14 13 11 12 11 11 11 12 13 12 10 9 8 8 5 4 3 1 1 0 0 1 3 3 4 4 5 7 7 8 8 8 8 8 8 8 10 9 12 11 10 11 11 11 11 12 11 13 13 15 20 23 25 27 26 27 26 28 28 26 18
23 15 9 13 14 16 14 8 14 16 16 17 19 17 15 15 14 13 14 16 15 10 8 4 4 13 12 13 14 14 10 11 12 10 9 10 10 10 8 7 7 5 4 2 2 0 0 1 2 3 4 4 5 6 6 7 7 7 7 7 8 9 9 9 11 10 10 11 11 11 11 11 11 12 13 14 16 21 26 25 28 27 26 28 30 27 28
17 7 4 9 14 13 5 9 13 16 17 18 16 15 14 13 13 15 15 12 13 17 12 9 4 9 15 12 13 16 15 11 11 12 11 10 10 9 8 7 6 5 5 3 1 0 0 1 2 3 3 5 6 6 7 7 7 8 8 7 8 9 9 10 10 11 10 10 11 11 12 13 12 12 13 14 16 18 21 29 30 26 25 30 32 30 29
8 3 3 3 3 4 6 5 6 12 12 13 11 10 12 14 15 13 14 14 10 12 15 13 11 7 13 15 11 12 13 13 12 12 11 10 9 8 8 7 6 5 3 3 2 1 0 1 2 2 3 4 6 7 7 7 7 6 7 7 7 7 8 10 9 9 9 9 10 10 10 11 12 12 12 12 13 15 13 16 19 25 28 32 33 32 30
5 9 10 6 3 4 8 16 11 11 13 13 14 13 12 11 14 10 6 5 7 8 11 13 13 12 8 10 14 12 16 13 10 9 9 10 10 9 8 6 6 5 3 3 1 1 2 1 1 2 3 4 6 6 6 7 7 6 7 7 6 8 13 11 7 8 8 8 9 10 10 10 11 11 12 12 11 12 12 13 13 15 14 19 25 31 25
11 12 14 16 14 14 12 9 7 14 14 13 12 12 11 11 11 11 12 11 10 9 9 11 16 15 14 11 15 13 11 14 13 10 10 9 7 7 7 7 6 5 4 3 2 1 1 0 1 2 3 4 5 5 6 6 6 6 6 6 6 7 7 9 8 7 8 8 8 9 9 9 10 10 10 10 12 12 11 13 11 10 12 15 14 20 30
12 13 13 14 11 9 7 6 9 11 10 7 8 11 14 15 12 13 12 13 14 14 13 7 5 12 17 13 13 15 13 12 12 13 10 9 8 8 7 7 5 4 3 3 2 1 1 1 1 2 3 4 6 5 5 6 5 6 6 6 6 6 7 7 7 7 8 8 8 9 10 9 9 9 10 10 10 10 12 11 11 13 13 16 18 21 21
14 12 8 4 10 14 14 11 12 12 12 12 14 13 15 17 14 11 13 13 12 14 13 12 13 11 11 14 12 16 17 16 13 10 10 9 9 8 7 7 6 3 3 2 1 1 1 1 2 2 4 5 6 5 6 5 5 5 4 6 5 6 6 7 6 7 8 8 9 12 8 8 8 9 10 10 11 10 10 11 14 13 13 17 16 16 14
8 8 8 8 10 12 16 14 12 12 13 12 14 14 11 15 17 14 14 12 9 12 14 14 13 14 11 12 11 8 9 10 11 10 9 9 8 7 8 8 9 8 7 6 3 2 2 1 1 1 3 4 5 6 5 5 4 5 4 5 4 9 12 13 10 7 7 8 9 9 9 9 9 9 10 10 10 9 11 12 11 11 11 13 12 13 11
12 8 8 8 10 11 10 10 11 12 14 13 14 16 18 17 18 19 15 14 14 17 16 13 15 16 12 11 12 12 12 11 11 10 9 8 7 6 7 6 3 4 5 4 3 3 2 1 1 2 3 4 4 4 5 4 4 5 6 5 6 6 8 13 7 8 7 7 7 8 8 9 10 9 9 9 10 10 11 11 10 11 10 12 11 14 14
16 9 5 8 7 10 11 10 14 13 14 16 17 16 14 14 14 16 18 16 12 12 15 15 12 13 13 13 13 13 13 11 10 10 9 8 7 6 6 4 4 5 5 3 3 2 2 1 1 3 3 3 3 4 4 3 3 4 4 5 4 6 6 8 9 7 6 7 8 8 8 8 8 8 9 9 10 10 11 11 10 11 11 10 10 15 15
22 21 21 21 21 19 18 15 12 14 12 11 12 12 12 12 14 14 15 14 16 17 15 15 15 15 14 15 14 15 15 14 12 11 11 10 9 8 6 6 5 4 5 3 3 2 1 0 1 2 3 3 3 4 4 3 3 3 4 4 5 5 6 6 7 6 6 7 7 8 7 8 8 9 9 8 9 10 10 10 10 11 11 11 11 10 18
19 16 18 21 19 17 18 19 17 16 16 14 10 10 11 10 12 14 16 18 19 17 13 14 14 13 15 15 15 15 16 16 15 14 12 11 10 9 8 7 5 4 4 2 2 1 0 1 3 3 2 2 2 3 3 2 3 3 3 4 5 3 4 5 6 7 6 7 6 7 8 8 8 8 8 8 8 9 8 8 10 10 10 11 11 11 14
14 11 10 12 12 11 12 13 14 18 17 17 16 14 13 11 12 13 16 13 11 12 13 14 14 15 15 16 15 15 14 11 12 12 12 11 10 8 8 9 8 7 5 2 2 2 0 1 3 2 0 1 1 2 4 1 2 3 3 3 3 3 3 4 4 4 5 6 6 6 6 8 8 8 8 8 8 9 8 8 9 9 9 9 10 11 11
15 14 13 13 12 12 14 14 15 16 15 16 15 14 13 13 14 11 11 13 14 16 18 17 15 17 17 15 13 11 9 11 11 12 12 11 9 10 10 9 8 8 7 5 5 4 2 1 1 1 0 1 1 2 4 5 2 2 2 3 2 3 3 5 5 6 6 6 6 6 7 6 6 7 7 8 8 8 8 9 9 9 8 8 10 10 11
15 14 15 14 13 14 15 15 15 16 15 12 11 13 16 15 12 14 14 14 15 16 16 17 17 14 13 12 11 12 11 10 11 12 15 14 11 11 9 9 9 7 7 8 5 5 2 2 2 1 0 0 1 2 4 5 5 2 2 2 2 2 2 3 4 5 6 6 6 6 6 7 7 7 8 7 7 8 8 7 6 8 8 8 8 8 10
12 9 9 10 11 12 12 10 11 12 16 18 13 10 9 12 13 14 14 14 13 15 16 14 14 15 15 15 15 12 11 10 12 13 13 12 10 11 11 10 8 7 3 4 6 3 3 3 2 1 1 1 1 2 3 4 4 1 1 1 2 2 2 2 3 4 4 5 6 6 6 7 6 7 7 7 7 8 8 9 10 8 8 8 8 8 9
13 12 13 12 12 11 12 12 12 12 10 13 18 16 14 14 13 14 13 16 14 15 16 16 17 15 15 15 15 14 14 15 12 13 15 12 11 7 4 3 2 4 4 8 5 4 4 6 3 2 1 0 1 1 2 3 4 1 1 2 2 2 2 3 2 4 4 4 6 6 6 6 6 6 6 6 7 7 7 8 9 9 8 8 9 10 9
12 11 11 12 12 12 12 12 11 10 11 10 10 14 16 17 15 15 19 19 15 14 15 17 17 15 17 17 15 14 13 12 13 14 11 12 10 9 10 10 6 5 5 5 4 5 6 4 3 2 1 1 1 1 1 3 3 2 1 1 2 2 3 3 3 4 4 5 5 6 6 6 6 6 6 6 6 7 7 7 8 8 8 8 9 8 8
10 11 11 11 11 12 11 10 11 11 7 8 11 13 13 14 17 19 17 14 15 13 14 11 11 16 15 13 13 16 14 12 12 12 11 12 13 11 9 5 6 7 9 8 8 6 4 2 2 2 2 0 1 3 2 2 2 2 2 1 1 2 2 3 3 4 3 3 3 4 5 5 5 6 6 6 6 6 7 7 7 7 8 8 7 7 8
10 12 12 12 11 11 13 13 13 13 11 9 10 11 13 12 12 14 15 15 16 15 13 12 13 14 15 16 16 15 13 11 12 11 6 1 1 1 2 8 8 7 12 7 6 4 5 3 3 1 2 1 0 1 2 2 1 1 2 2 3 3 4 3 3 3 4 3 4 4 5 5 5 6 6 6 6 6 6 7 7 7 7 8 8 8 7
9 10 11 12 11 11 12 12 12 12 14 10 9 11 12 11 13 16 17 17 16 15 17 15 15 15 15 16 16 14 11 12 11 9 8 5 2 1 4 8 8 9 12 7 6 5 5 4 3 3 3 3 2 2 2 0 0 1 1 2 2 2 2 2 3 3 4 4 4 4 5 5 5 5 5 6 6 6 6 6 6 6 7 7 7 7 8
8 9 11 12 13 12 11 12 14 14 13 14 12 10 10 12 12 12 15 16 16 15 13 15 15 15 14 13 13 13 12 11 12 12 13 9 8 6 4 7 8 7 8 8 6 5 4 4 4 5 3 3 3 3 1 0 0 1 1 1 1 1 2 2 3 3 4 3 4 4 4 4 4 5 5 6 6 7 7 7 7 6 6 7 7 7 7
11 10 12 13 12 9 9 10 11 13 15 16 16 11 8 9 11 10 10 13 14 13 12 13 14 14 15 13 11 11 10 8 6 2 3 2 5 7 9 8 8 6 10 10 4 5 4 7 7 5 4 4 4 2 1 1 1 0 0 1 1 1 1 2 2 2 2 3 4 3 3 4 4 4 5 5 5 6 7 7 7 6 5 5 6 6 7
11 11 10 11 13 13 13 13 12 16 20 22 20 14 8 9 10 9 9 9 11 11 11 10 11 10 9 13 16 15 12 9 4 3 3 3 6 9 11 11 10 12 9 7 6 5 5 5 5 5 5 5 5 2 1 1 0 0 0 1 0 1 1 1 1 1 2 3 4 4 5 5 4 4 5 5 5 5 6 7 6 6 6 6 6 6 6
15 16 16 18 19 16 15 15 15 14 14 18 14 10 11 10 11 11 10 11 11 11 11 9 9 9 9 8 3 4 8 14 15 5 3 5 5 8 9 7 7 9 9 7 8 6 8 8 7 6 5 5 3 2 1 1 0 0 0 0 0 1 1 1 1 2 2 2 3 4 4 4 4 4 4 4 5 5 5 5 6 6 6 6 6 7 7
15 16 16 14 13 15 16 13 12 13 11 9 11 11 12 13 13 12 12 12 13 12 11 10 10 9 7 6 7 8 4 4 3 7 8 7 8 8 8 9 12 11 7 6 6 4 6 7 6 6 5 5 2 1 1 1 1 0 0 0 1 1 1 2 3 3 3 2 3 3 4 5 5 4 5 5 5 5 6 6 6 5 6 7 7 7 6
12 15 14 10 10 9 9 12 12 9 8 9 9 9 12 12 13 10 9 10 10 10 10 9 9 8 7 6 7 6 5 7 9 11 10 9 8 8 8 8 7 8 8 7 5 4 5 7 6 5 4 3 2 2 2 2 2 1 1 1 1 1 1 2 3 3 2 2 3 3 3 5 5 5 5 5 5 5 5 5 6 7 11 8 6 6 7
9 10 8 8 8 9 10 9 8 10 9 9 10 10 9 9 10 11 10 11 12 12 11 9 7 5 6 6 5 5 6 7 8 9 9 8 7 7 7 6 7 6 6 6 5 5 3 3 3 3 3 3 3 2 2 2 1 1 2 2 1 2 2 3 2 2 2 3 3 4 5 4 4 5 5 5 5 6 6 6 6 6 6 6 6 6 6
10 9 8 9 9 9 10 10 10 8 8 9 8 8 8 10 11 11 9 6 9 11 12 14 12 4 4 5 5 6 6 7 7 7 7 8 8 7 7 7 6 6 6 5 5 3 3 3 3 4 4 2 3 2 3 3 2 2 2 3 3 3 2 3 3 3 3 4 5 5 6 5 4 6 6 5 5 6 6 5 5 6 6 6 6 6 7
Wind_Direction
245 244 252 207 222 235 255 257 251 179 193 189 207 222 235 233 225 249 265 267 255 261 264 213 213 199 202 192 192 193 180 167 165 166 176 191 203 213 215 223 226 232 241 238 245 259 284 313 322 322 322 324 319 313 308 309 313 314 313 312 312 311 311 308 306 305 304 304 300 297 295 291 294 298 296 298 300 299 296 292 289 288 288 285 284 281 277
245 250 250 239 231 257 266 259 250 209 199 212 219 233 240 230 239 249 262 270 268 267 270 247 221 208 195 197 176 146 160 177 174 175 185 193 202 208 215 219 220 225 229 239 253 276 319 327 332 331 327 322 321 316 314 316 314 312 316 310 309 310 307 306 304 302 299 298 300 302 303 303 304 303 302 303 300 295 293 291 288 286 285 283 279 278 280
261 257 232 231 237 251 263 264 258 235 243 237 232 240 252 250 251 256 256 261 268 269 260 252 209 184 126 128 166 179 179 174 178 182 188 194 200 208 214 214 218 222 230 244 258 254 316 348 337 329 315 313 314 312 313 316 314 314 316 310 309 307 305 304 304 303 302 303 306 305 303 304 303 305 303 302 300 297 292 289 287 286 283 281 280 278 277
263 276 129 319 14 300 270 273 265 244 243 247 240 232 239 230 239 245 255 261 260 267 272 223 182 155 161 171 176 176 184 183 178 185 190 192 201 206 209 211 212 222 234 233 221 14 348 340 335 327 322 319 317 316 318 315 314 315 313 310 308 306 303 305 306 308 309 312 309 308 308 304 305 306 304 303 300 297 294 290 283 276 277 279 281 279 277
250 103 83 87 331 294 278 254 247 232 228 230 240 243 242 232 228 243 245 245 247 257 140 197 182 176 183 171 178 183 180 184 185 185 187 193 200 206 202 203 212 214 220 193 100 12 350 338 327 324 321 315 315 318 314 310 311 312 312 310 308 307 308 308 309 312 315 314 311 310 310 310 308 307 304 301 300 297 293 289 286 281 280 281 279 279 273
238 55 74 116 62 278 252 343 174 185 216 217 229 242 241 234 198 224 229 245 258 255 209 206 197 185 191 187 197 182 175 181 189 186 188 191 196 201 197 199 203 208 189 177 136 71 350 326 318 313 313 304 304 307 304 308 314 313 313 311 309 307 308 310 314 315 317 316 314 313 311 309 309 307 304 302 300 295 293 290 284 280 277 278 281 277 272
214 114 78 110 248 250 325 252 320 204 201 204 214 237 246 242 226 233 248 257 257 251 242 212 189 193 198 200 176 180 190 173 170 176 181 187 190 195 195 195 198 184 182 172 129 58 15 336 323 319 316 316 315 314 318 316 314 310 309 308 309 309 311 314 317 321 319 315 309 311 312 312 309 306 303 302 301 299 295 285 283 280 280 284 280 278 275
52 115 186 187 242 273 288 203 187 180 150 218 259 269 263 249 238 226 230 246 251 253 251 211 185 179 161 118 171 177 171 161 160 166 179 187 187 191 194 178 174 171 167 139 80 42 2 327 323 320 321 327 323 315 316 309 308 308 307 307 307 312 315 317 319 319 318 316 318 317 313 312 309 306 304 301 302 301 290 282 274 270 274 272 274 279 275
219 193 207 234 326 321 289 275 201 155 199 174 186 252 274 261 196 217 225 242 251 251 239 157 122 109 107 125 202 201 163 169 172 168 176 177 184 178 167 151 156 152 128 102 77 57 324 314 314 324 330 330 320 314 312 309 308 309 312 312 314 317 318 319 320 321 322 319 315 313 313 310 308 307 306 304 296 290 286 281 279 274 271 273 279 272 270
210 226 244 282 270 262 268 254 225 188 190 157 163 205 281 251 178 200 209 230 244 236 137 136 133 135 104 194 226 190 186 167 156 145 145 145 148 148 141 136 143 125 106 86 84 102 293 282 330 341 338 326 319 313 312 314 318 320 318 316 318 317 314 316 318 321 320 318 315 312 311 309 307 304 300 291 290 291 289 295 298 296 288 280 274 267 261
143 200 228 233 236 248 244 128 191 168 129 133 114 70 271 258 175 201 201 219 226 170 154 153 148 135 194 227 210 171 169 167 157 149 154 150 153 147 150 152 135 118 102 110 168 174 232 337 354 350 337 328 322 319 319 322 324 319 319 319 321 321 321 323 321 319 316 315 313 311 309 307 306 304 304 299 296 304 306 304 302 302 298 293 283 266 260
210 208 217 236 214 254 207 163 158 175 140 121 80 352 270 200 183 187 191 208 187 172 159 155 167 166 206 227 205 160 165 162 157 158 157 155 151 139 131 124 118 116 127 132 99 29 16 354 353 344 339 333 328 323 323 323 320 320 321 320 318 319 317 319 319 317 315 313 311 311 308 306 304 303 312 317 316 311 307 306 304 302 302 298 295 284 268
219 214 241 289 279 254 163 170 151 158 147 99 102 230 254 152 186 193 177 201 176 160 160 166 179 212 207 151 133 148 140 136 145 148 147 137 145 149 145 126 110 106 93 71 42 18 5 359 359 346 345 339 330 325 321 321 319 319 319 319 321 321 319 316 316 314 314 312 310 308 304 301 305 313 317 315 312 310 310 309 308 307 306 303 298 288 274
218 206 221 235 264 260 142 170 157 158 111 171 227 244 112 150 182 195 185 182 172 165 173 185 198 139 119 112 124 139 156 157 150 143 137 128 127 131 120 112 102 94 86 66 33 18 19 7 3 350 350 337 325 327 324 319 319 318 321 323 322 320 317 316 315 315 313 312 307 306 305 308 316 314 313 311 308 311 310 309 310 309 312 312 311 307 306
46 142 225 256 260 257 148 144 132 189 169 233 207 96 196 151 175 173 196 174 181 169 184 183 132 130 130 141 149 151 148 147 151 149 151 154 156 138 118 92 88 103 101 79 38 21 4 8 3 349 351 336 330 328 322 317 321 320 321 322 322 319 316 315 318 315 314 313 313 311 312 316 315 314 315 313 312 313 313 313 312 314 315 317 313 313 310
170 188 201 213 219 133 150 146 183 189 214 206 138 148 171 207 163 176 163 192 178 184 168 154 151 148 138 136 145 142 144 142 142 147 139 134 121 113 108 115 118 113 102 78 44 27 10 5 353 352 349 340 331 327 318 322 322 321 320 322 320 318 317 318 317 317 316 315 313 313 317 317 315 314 317 318 318 318 318 316 317 319 317 314 314 314 315
169 197 215 226 120 161 178 185 199 195 203 136 177 146 166 159 211 179 169 184 185 181 169 157 151 153 167 159 162 158 165 157 154 146 152 143 132 123 119 115 103 86 88 62 45 27 9 360 340 355 355 347 328 321 320 326 323 325 324 323 323 319 320 319 319 317 317 316 315 318 321 318 318 317 316 323 320 320 317 320 320 319 316 314 313 315 316
228 258 250 75 218 189 193 214 203 164 182 185 157 157 148 188 167 173 175 186 177 177 161 146 173 166 167 154 163 152 150 148 144 120 114 109 107 110 115 111 107 105 91 72 54 14 349 347 338 354 0 345 327 318 323 326 326 325 324 324 323 323 321 320 319 319 319 319 319 324 323 319 316 316 317 320 320 319 322 319 322 319 315 314 317 321 319
161 247 243 218 223 179 202 208 216 291 210 182 176 170 163 167 163 178 199 169 176 168 168 168 170 171 161 160 159 152 146 146 138 139 133 134 134 135 125 125 116 92 86 68 49 13 331 329 347 355 350 336 322 320 324 326 328 325 323 322 321 321 322 320 320 323 324 325 329 328 326 321 319 322 324 321 319 319 321 323 319 312 311 322 324 322 315
192 243 248 269 211 191 201 200 203 221 203 192 196 169 164 162 172 178 184 164 165 161 173 180 164 164 165 153 155 155 154 150 150 145 135 135 130 125 122 117 113 109 99 98 64 337 303 311 354 349 338 325 325 322 323 329 326 326 323 326 325 322 321 322 323 326 325 328 329 326 329 327 329 329 329 324 324 326 326 322 309 308 319 323 326 319 315
235 256 249 101 57 242 223 216 217 212 195 183 177 163 156 152 159 168 157 175 167 173 184 168 157 151 173 163 158 153 146 147 147 151 142 139 133 134 126 119 114 114 120 107 139 250 287 329 357 333 327 320 326 330 329 330 330 330 325 325 322 319 321 324 325 326 327 328 330 328 325 326 328 332 325 327 327 321 323 313 319 325 319 325 321 306 308
235 231 233 152 202 232 223 213 214 209 187 172 171 164 164 167 166 164 161 174 187 184 174 164 158 160 162 159 150 151 154 153 139 135 135 134 130 124 118 114 116 108 118 126 166 259 298 357 345 331 326 322 324 327 328 335 335 331 327 324 324 325 326 326 325 328 332 331 333 329 329 327 331 328 329 334 335 334 332 339 339 339 343 338 339 326 332
230 235 238 200 210 231 233 210 206 195 179 173 174 184 182 180 171 164 159 154 156 169 193 184 159 156 156 158 147 137 143 148 148 142 139 138 136 129 126 120 118 125 127 141 161 243 318 352 343 326 321 317 325 332 339 339 337 329 324 324 322 323 327 329 328 332 330 332 332 329 329 329 334 333 331 334 343 350 350 348 346 345 346 349 350 346 351
234 241 232 195 199 219 226 188 177 183 185 182 190 188 179 170 167 170 168 169 166 180 166 189 181 151 149 148 146 139 130 134 135 135 129 127 128 127 126 129 139 141 146 162 172 224 4 349 338 320 318 320 333 333 338 335 333 328 325 325 325 323 323 320 327 331 332 331 331 332 332 334 336 337 335 335 334 345 354 356 350 350 351 354 355 351 358
230 210 180 186 200 216 188 164 174 182 187 185 186 181 176 171 173 169 173 179 174 160 165 161 131 145 143 148 145 145 145 143 141 135 130 128 133 129 133 137 150 154 157 163 173 188 40 345 331 318 327 324 334 334 336 334 335 330 325 326 318 319 317 323 328 331 332 333 334 337 338 339 340 340 343 343 344 340 336 347 353 357 356 357 357 355 1
227 138 127 98 106 137 132 106 177 190 183 180 177 178 173 169 168 172 176 169 170 169 159 152 139 145 144 140 134 127 125 135 141 133 134 138 136 131 144 155 155 150 154 164 179 137 66 21 315 328 332 329 337 329 333 332 333 322 319 316 313 309 321 324 329 330 332 331 334 334 338 343 341 342 340 341 341 337 333 337 343 348 352 357 356 354 4
165 149 113 77 102 187 180 166 196 181 180 180 178 168 165 163 161 151 116 104 134 150 153 150 138 132 116 122 126 135 136 137 129 134 138 143 154 156 150 140 144 151 156 166 146 87 68 3 335 349 325 324 327 324 330 334 328 323 320 323 322 321 331 336 328 329 328 329 329 329 337 345 344 344 342 341 337 336 331 332 332 340 338 344 349 351 4
172 175 168 196 199 188 206 213 162 168 174 171 166 154 142 124 118 119 123 114 107 101 107 128 133 130 126 136 131 127 127 138 146 149 148 155 146 135 138 140 141 149 157 154 126 97 77 315 2 344 312 326 326 327 332 332 324 322 322 326 331 323 324 328 336 331 333 327 328 327 339 342 344 342 336 333 347 343 333 333 323 316 333 347 341 339 360
178 189 199 213 203 183 156 117 118 140 146 139 126 122 131 136 147 144 148 146 133 130 122 127 124 139 139 147 144 141 147 147 149 159 155 146 139 135 135 136 141 143 149 139 124 110 97 44 28 354 324 336 328 331 332 328 323 326 331 331 332 324 327 327 335 333 331 330 324 334 346 342 344 348 342 344 339 348 355 347 343 351 346 344 346 351 356
186 184 173 140 127 135 141 158 158 152 147 143 138 150 155 147 149 158 141 138 152 153 152 141 139 143 147 143 155 151 157 163 157 144 141 143 139 135 136 134 124 132 153 159 164 159 85 62 19 344 338 333 330 329 329 322 317 320 319 322 329 322 317 332 341 336 341 334 337 342 342 342 349 349 352 349 356 351 347 346 348 347 349 351 350 350 345
154 159 154 141 144 157 163 164 156 155 146 148 151 152 163 159 158 154 148 150 152 143 151 156 150 142 154 151 143 130 123 126 132 137 136 138 136 141 146 152 155 176 184 178 169 160 119 76 7 333 323 322 317 326 328 322 323 326 330 338 340 338 347 354 1 352 343 339 339 345 344 350 350 351 350 344 346 345 358 353 340 344 340 340 338 343 335
147 133 132 153 158 157 152 149 147 153 159 158 153 163 170 171 168 165 161 166 171 159 151 150 155 159 151 137 130 126 127 127 128 131 131 134 140 145 155 167 187 145 140 145 150 143 127 98 358 296 312 311 320 325 327 325 334 343 351 344 343 335 339 357 359 356 351 344 343 348 347 348 351 352 354 354 359 358 354 347 341 345 337 347 339 354 341
146 134 155 159 155 161 166 170 157 167 163 169 179 175 173 174 165 162 168 161 142 159 161 158 150 143 139 136 132 130 130 128 128 132 140 146 149 150 148 151 146 143 141 142 142 138 126 122 270 305 305 315 325 326 324 327 347 344 333 340 333 331 337 349 0 355 346 354 356 354 347 348 349 349 356 350 354 355 355 349 344 345 343 341 350 350 348
171 182 183 176 171 177 176 184 176 165 175 178 173 168 170 171 167 162 158 161 156 157 163 157 149 143 140 140 138 137 136 131 143 160 164 160 157 154 155 146 147 141 130 124 114 101 70 254 273 280 308 323 327 329 318 331 351 345 336 343 342 344 343 337 348 353 360 0 354 346 345 347 353 354 352 353 354 357 353 350 345 347 342 343 341 331 349
181 187 180 183 188 182 175 168 169 168 167 172 177 177 174 160 156 162 159 157 166 167 148 138 138 140 141 141 145 152 160 163 162 159 162 160 158 155 142 134 131 130 135 145 117 111 243 268 265 267 289 307 331 324 309 341 11 343 344 350 346 349 338 337 351 356 2 349 341 348 352 353 353 347 347 353 354 356 349 353 353 349 348 343 338 337 348
181 174 168 176 175 162 160 163 164 166 168 173 175 170 168 169 152 148 162 163 135 129 132 136 136 140 147 151 154 162 165 158 152 152 152 153 151 145 144 149 158 158 161 183 185 172 234 262 289 341 336 305 347 317 312 15 30 359 350 359 349 351 344 348 347 349 355 349 354 352 347 348 349 348 350 352 352 355 354 358 355 347 349 343 337 340 338
182 171 166 166 166 159 159 162 165 166 174 174 170 166 166 167 165 151 132 131 142 146 146 145 146 156 163 163 153 149 145 148 151 154 137 128 142 146 157 162 169 170 160 176 205 153 183 247 270 53 30 336 306 312 306 22 64 7 346 3 358 358 355 356 356 4 2 353 355 348 348 347 353 356 355 357 353 353 354 3 356 349 345 339 347 343 343
181 170 161 160 162 165 169 173 171 172 168 162 166 169 165 156 148 145 149 145 148 150 151 156 157 148 138 135 144 151 144 142 141 138 135 143 151 150 161 168 176 166 174 197 166 137 175 206 124 90 243 280 289 288 318 23 53 34 1 12 18 6 10 11 5 3 6 354 351 350 351 350 352 351 353 353 353 352 352 349 343 348 339 341 337 344 350
169 157 145 148 152 162 164 159 158 165 162 160 155 143 145 142 139 137 143 149 147 145 144 144 140 141 145 147 148 140 139 135 138 144 147 150 155 160 176 185 181 172 175 150 131 153 182 175 147 195 225 257 293 307 315 8 40 53 12 17 18 31 26 21 19 8 4 356 347 354 353 350 349 352 349 351 344 349 350 352 353 349 351 345 345 344 341
165 161 152 146 156 159 151 155 162 164 168 156 148 150 150 142 146 142 141 127 142 152 148 145 147 149 155 155 153 154 145 133 140 142 140 142 132 139 117 127 168 151 142 143 140 157 172 154 152 183 212 270 277 296 319 24 27 359 23 20 22 35 31 31 25 22 7 0 358 358 350 349 346 346 341 342 347 347 349 350 351 355 353 354 355 353 348
166 155 149 150 153 153 153 150 154 155 145 147 145 144 151 149 144 140 144 148 152 155 155 156 152 153 159 159 153 145 146 136 125 123 132 137 140 161 160 178 177 158 162 144 150 166 157 148 172 161 205 231 289 348 342 29 24 349 344 4 27 35 40 27 38 23 15 2 358 353 344 337 341 341 340 345 346 346 349 350 351 353 353 351 348 344 350
163 150 146 142 145 150 148 138 129 124 124 130 137 144 147 150 151 153 148 142 143 150 150 156 153 149 145 135 126 120 123 137 144 149 159 166 165 162 161 185 151 157 162 156 161 149 141 142 145 149 174 180 227 3 40 51 14 355 355 357 5 31 40 36 32 21 7 358 346 335 333 333 339 338 340 342 343 347 347 345 346 353 351 345 337 342 344
142 146 150 144 143 139 140 144 147 137 124 124 134 137 135 133 124 128 137 143 145 145 145 140 134 133 134 135 137 139 142 144 147 153 143 60 39 356 162 151 150 161 157 146 143 144 153 145 156 168 135 142 114 44 76 67 30 11 5 8 9 17 30 26 26 20 7 5 359 349 341 338 345 343 341 341 338 340 343 350 348 347 347 344 341 337 337
146 142 139 137 138 140 134 128 124 128 128 125 124 126 128 126 136 142 145 146 146 150 148 146 145 143 144 144 142 135 140 153 152 156 143 127 95 50 87 131 146 152 152 146 149 146 150 145 158 142 131 95 92 92 120 86 86 19 25 20 13 9 10 16 19 17 15 9 354 345 344 342 345 337 339 336 334 337 339 342 337 343 341 339 336 334 336
125 131 132 133 133 132 135 141 145 139 117 109 111 110 118 126 132 140 143 145 147 146 146 145 147 147 150 152 151 152 152 154 155 154 149 152 161 196 155 142 142 147 148 147 144 144 144 145 142 139 129 111 101 100 108 90 24 41 30 21 10 17 14 23 13 8 1 358 343 340 333 338 330 331 328 326 326 329 330 330 332 336 334 333 334 336 339
98 101 112 120 124 123 119 114 109 117 123 112 90 78 98 118 126 128 137 140 141 143 145 146 146 147 146 136 121 118 114 118 118 84 30 112 157 149 147 146 144 146 147 145 134 139 147 147 144 134 132 121 113 103 72 77 60 19 0 23 10 22 27 26 356 345 341 340 328 311 318 315 319 318 313 309 319 322 320 326 322 326 329 328 329 334 333
113 108 107 103 94 90 110 108 120 114 108 97 103 117 112 119 120 121 119 120 121 123 125 128 131 134 132 141 142 139 134 126 93 69 79 64 95 118 135 137 140 144 142 142 144 143 151 140 146 142 132 127 122 124 145 131 179 347 1 358 5 11 15 334 338 335 324 305 312 323 328 321 318 311 314 318 318 316 322 321 322 324 323 322 323 326 329
88 87 93 83 101 108 106 116 127 133 137 115 102 107 115 117 112 108 109 110 110 110 111 115 113 118 122 126 103 122 138 142 145 178 154 128 117 124 134 144 143 139 137 138 140 149 152 151 149 142 141 128 125 141 152 171 180 239 235 288 23 336 318 302 310 299 300 303 315 312 308 310 307 309 307 307 304 311 306 315 316 318 318 326 327 332 328
80 95 92 97 108 121 118 116 123 113 112 114 111 114 122 118 112 113 114 115 114 112 111 110 111 110 102 101 111 127 106 350 60 146 151 139 138 132 130 130 134 134 132 132 132 132 144 151 153 148 142 135 141 170 178 186 208 222 202 264 267 255 276 270 260 245 254 272 284 291 289 290 296 304 303 301 303 302 306 309 309 310 317 322 322 321 325
70 66 70 94 110 117 120 86 84 98 111 114 96 120 131 127 122 127 128 127 121 114 110 110 106 103 107 102 78 67 39 83 98 103 118 123 123 122 125 128 132 131 132 132 132 138 154 154 157 157 148 141 162 165 191 213 215 207 206 246 252 241 260 276 288 298 292 295 287 280 280 280 284 290 295 297 297 296 298 299 299 308 315 316 307 317 325
93 85 86 81 74 64 74 76 97 114 107 112 122 128 129 122 121 127 132 133 131 124 121 114 103 101 105 104 94 79 87 93 100 111 116 120 120 119 120 125 128 129 131 133 139 149 151 141 158 171 163 169 177 187 197 203 202 226 228 209 231 235 249 272 273 269 264 266 260 265 270 279 276 283 279 284 289 298 294 301 305 311 311 310 311 316 309
83 81 73 77 75 78 86 96 101 103 110 119 125 126 122 124 126 123 122 124 131 133 136 130 119 95 94 100 96 98 103 98 100 102 108 111 120 122 121 119 120 125 127 134 142 159 159 177 186 182 188 190 177 205 224 230 229 221 222 231 232 234 246 257 251 261 260 264 267 271 269 267 268 272 278 276 279 282 290 293 295 299 294 301 306 305 304